Location: Alladorf
(49.9620°N, 11.3790°E)
Time: 21:27:39
(UTC+00:00)

Meteor 1-31 Rocket - Pass Details

Date: 29 November 2020
Orbit: 520 x 546 km, 97.6° (Epoch: 24 January)

Event Time Altitude Azimuth Distance (km) Brightness Sun altitude
Rises 05:34:41 0° 359° (N) 2,697 6.1 -11.4°
Reaches altitude 10° 05:37:29 10° 337° (NNW) 1,795 5.0 -11.0°
Maximum altitude 05:39:48 16° 300° (WNW) 1,464 4.3 -10.7°
Enters shadow 05:40:21 15° 290° (WNW) 1,481 4.3 -10.6°
